Stations météo

Publicité
Kleine Brogel, Belgique (6479): Température de l'air & dewpoint: 10.12.2018 13:00:00 - 16.12.2018 13:00:00 (CET)Kleine Brogel, Belgique (6479): Vitesse du vent & gusts: 10.12.2018 13:00:00 - 16.12.2018 13:00:00 (CET)Kleine Brogel, Belgique (6479): Direction du vent: 10.12.2018 13:00:00 - 16.12.2018 13:00:00 (CET)Kleine Brogel, Belgique (6479): reduced air pressure: 10.12.2018 13:00:00 - 16.12.2018 13:00:00 (CET)Kleine Brogel, Belgique (6479): visibility: 10.12.2018 13:00:00 - 16.12.2018 13:00:00 (CET)
Date & Time tt [°C] td [°C] ff [km/h] ff [knt] fx [km/h] fx [knt] dd ppp [hPa] vv [km]
16.12.2018 13:00:00 2,4 1,8 11 6 - - SW 1011,0 4,3
16.12.2018 12:00:00 2,4 1,7 11 6 22 12 SW 1011,1 5
16.12.2018 11:00:00 1,7 1,4 7 4 14 8 SSW 1011,3 3,1
16.12.2018 10:00:00 1,2 1,1 7 4 - - SSW 1010,7 1,2
16.12.2018 09:00:00 1,1 0,5 7 4 18 10 S 1010,7 2,9
16.12.2018 08:00:00 0,5 0,0 4 2 11 6 N 1010,5 3,7
16.12.2018 07:00:00 0,4 -0,4 7 4 - - S 1010,3 5
16.12.2018 06:00:00 0,1 -0,5 5 3 11 6 SSE 1010,5 4,4
16.12.2018 05:00:00 -0,3 -0,8 4 2 11 6 N 1010,7 3,1
16.12.2018 04:00:00 -0,8 -1,2 5 3 - - ESE 1011,1 2,8
16.12.2018 03:00:00 -0,6 -1,0 5 3 14 8 ESE 1011,8 2,3
16.12.2018 02:00:00 -0,8 -1,7 8 4 18 10 ESE 1012,3 4,0
16.12.2018 01:00:00 -1,0 -2,1 5 3 - - ESE 1013,0 1,4
16.12.2018 00:00:00 0,3 -5,0 5 3 18 10 ESE 1013,5 10
15.12.2018 23:00:00 0,0 -5,1 7 4 25 14 ESE 1013,6 17
15.12.2018 22:00:00 -0,5 -5,2 7 4 - - ESE 1014,8 16
15.12.2018 21:00:00 -0,8 -5,3 7 4 18 10 ESE 1016,0 15
15.12.2018 20:00:00 -1,1 -5,3 7 4 18 10 ESE 1017,3 16
15.12.2018 19:00:00 -1,1 -5,2 7 4 - - SE 1018,3 15
15.12.2018 18:00:00 -1,3 -5,3 7 4 14 8 E 1019,2 20
15.12.2018 17:00:00 -1,1 -5,5 4 2 11 6 N 1020,6 17
15.12.2018 16:00:00 -0,2 -5,5 4 2 - - N 1021,2 17
15.12.2018 15:00:00 0,6 -5,4 7 4 22 12 SE 1022,6 18
15.12.2018 14:00:00 0,5 -5,7 7 4 18 10 SE 1023,3 17
15.12.2018 13:00:00 0,4 -5,7 11 6 - - SSE 1024,2 20
15.12.2018 12:00:00 0,3 -6,3 7 4 18 10 SE 1024,9 20
15.12.2018 11:00:00 0,1 -5,9 4 2 18 10 N 1025,9 18
15.12.2018 10:00:00 0,0 -6,0 4 2 - - N 1026,2 19
15.12.2018 09:00:00 -0,1 -5,6 4 2 18 10 N 1026,0 20
15.12.2018 08:00:00 -0,1 -5,2 4 2 18 10 N 1025,7 19
15.12.2018 07:00:00 0,0 -5,0 4 2 - - N 1026,0 19
15.12.2018 06:00:00 0,0 -4,5 4 2 7 4 N 1025,9 19
15.12.2018 05:00:00 -0,2 -3,3 4 2 4 2 N 1026,0 18
15.12.2018 04:00:00 -0,3 -2,3 4 2 - - N 1026,2 16
15.12.2018 03:00:00 -0,1 -1,8 4 2 4 2 N 1026,5 11
15.12.2018 02:00:00 -0,4 -1,2 4 2 4 2 N 1026,5 10
15.12.2018 01:00:00 -0,2 -1,2 4 2 - - N 1026,0 9
15.12.2018 00:00:00 -0,1 -1,4 4 2 4 2 N 1025,7 8
14.12.2018 23:00:00 -0,1 -1,2 4 2 7 4 N 1025,5 8
14.12.2018 22:00:00 -0,1 -1,2 4 2 - - N 1025,7 9
14.12.2018 21:00:00 -0,4 -1,3 4 2 4 2 N 1026,0 6
14.12.2018 20:00:00 -0,3 -1,5 4 2 4 2 N 1026,0 7
14.12.2018 19:00:00 -0,1 -1,6 2 1 - - - 1025,5 8
14.12.2018 18:00:00 0,0 -1,3 4 2 7 4 N 1025,5 10
14.12.2018 17:00:00 0,2 -1,0 4 2 11 6 N 1024,8 6
14.12.2018 16:00:00 0,6 -1,2 4 2 - - N 1024,5 6
14.12.2018 15:00:00 0,8 -0,3 7 4 11 6 NNE 1023,7 3,0
14.12.2018 14:00:00 1,0 -0,5 4 2 11 6 N 1023,5 6
14.12.2018 13:00:00 0,8 -0,4 8 4 - - ENE 1023,5 6
14.12.2018 12:00:00 0,5 -0,6 4 2 11 6 N 1023,7 6
14.12.2018 11:00:00 0,3 -0,6 7 4 14 8 NNE 1024,0 6
14.12.2018 10:00:00 0,0 -0,7 7 4 - - NNE 1023,8 4,5
14.12.2018 09:00:00 -0,1 -1,1 7 4 11 6 N 1023,5 4,0
14.12.2018 08:00:00 -0,3 -1,0 7 4 11 6 NE 1022,6 4,0
14.12.2018 07:00:00 -0,4 -1,0 7 4 - - NE 1022,1 5
14.12.2018 06:00:00 -0,4 -0,9 11 6 14 8 NE 1021,7 6
14.12.2018 05:00:00 -0,6 -1,1 11 6 14 8 NNE 1021,7 5
14.12.2018 04:00:00 -1,0 -1,5 7 4 - - NNE 1021,7 3,7
14.12.2018 03:00:00 -1,1 -2,0 11 6 14 8 NE 1022,0 4,7
14.12.2018 02:00:00 -0,6 -1,6 11 6 14 8 NE 1021,8 6
14.12.2018 01:00:00 -0,4 -1,8 9 5 - - NE 1021,6 6
14.12.2018 00:00:00 -0,3 -1,7 11 6 14 8 NE 1021,7 10
13.12.2018 23:00:00 -1,4 -2,9 7 4 11 6 NE 1021,7 11
13.12.2018 22:00:00 -1,7 -3,3 7 4 - - NNE 1021,8 10
13.12.2018 21:00:00 -1,8 -3,6 7 4 14 8 NE 1021,6 12
13.12.2018 20:00:00 -0,3 -3,0 7 4 18 10 ENE 1021,1 18
13.12.2018 19:00:00 -0,2 -2,8 11 6 - - NE 1021,0 11
13.12.2018 18:00:00 -0,3 -3,0 11 6 14 8 NE 1020,7 18
13.12.2018 17:00:00 0,9 -3,1 11 6 18 10 NE 1020,8 20
13.12.2018 16:00:00 1,5 -2,8 11 6 - - ENE 1020,2 20
13.12.2018 15:00:00 2,6 -2,5 14 8 25 14 ENE 1020,2 20
13.12.2018 14:00:00 2,9 -3,1 11 6 29 16 E 1020,5 20
13.12.2018 13:00:00 2,7 -2,8 14 8 - - E 1020,7 20
13.12.2018 12:00:00 2,4 -2,1 14 8 29 16 E 1021,2 20
13.12.2018 11:00:00 1,2 -0,8 14 8 25 14 ENE 1021,7 12
13.12.2018 10:00:00 0,5 -0,5 14 8 - - ENE 1021,8 9
13.12.2018 09:00:00 -0,9 -1,5 7 4 11 6 ENE 1021,8 6
13.12.2018 08:00:00 -0,5 -1,1 7 4 14 8 ENE 1021,6 5
13.12.2018 07:00:00 -0,5 -1,0 11 6 - - ENE 1021,3 5
13.12.2018 06:00:00 -0,6 -1,1 11 6 18 10 ENE 1021,6 5
13.12.2018 05:00:00 -0,5 -1,0 7 4 11 6 ENE 1021,8 5
13.12.2018 04:00:00 -0,3 -0,9 7 4 - - E 1022,3 7
13.12.2018 03:00:00 -0,4 -1,1 7 4 14 8 ENE 1022,8 10
13.12.2018 02:00:00 -0,2 -1,2 7 4 14 8 ENE 1023,2 9
13.12.2018 01:00:00 -0,7 -1,3 7 4 - - ENE 1023,7 7
13.12.2018 00:00:00 -0,5 -1,3 7 4 14 8 ENE 1024,2 8
12.12.2018 23:00:00 -0,5 -1,1 7 4 11 6 ENE 1024,7 9
12.12.2018 22:00:00 0,3 -0,5 7 4 - - ENE 1024,9 9
12.12.2018 21:00:00 1,4 0,5 11 6 11 6 ENE 1025,0 10
12.12.2018 20:00:00 0,4 -0,3 4 2 7 4 N 1025,0 4,8
12.12.2018 19:00:00 0,6 -0,2 4 2 - - N 1025,2 10
12.12.2018 18:00:00 2,0 0,3 7 4 11 6 NE 1025,2 11
12.12.2018 17:00:00 2,9 1,0 4 2 7 4 N 1025,2 20
12.12.2018 16:00:00 3,6 1,9 7 4 - - ENE 1025,2 7
12.12.2018 15:00:00 3,7 2,4 7 4 14 8 ENE 1025,5 5
12.12.2018 14:00:00 3,7 2,4 7 4 14 8 E 1025,7 5
12.12.2018 13:00:00 3,0 2,9 4 2 - - N 1026,2 2,0
12.12.2018 12:00:00 2,2 2,1 4 2 7 4 N 1026,7 1,5
12.12.2018 11:00:00 0,8 0,8 2 1 4 2 - 1026,6 0,6
12.12.2018 10:00:00 -0,3 -0,4 4 2 - - - 1026,6 1,8
12.12.2018 09:00:00 -1,4 -1,4 2 1 4 2 - 1026,7 0,3
12.12.2018 08:00:00 -2,4 -2,4 4 2 4 2 N 1026,5 0,5
12.12.2018 07:00:00 -2,5 -2,7 4 2 - - N 1026,2 0,5
12.12.2018 06:00:00 -2,5 -2,9 4 2 0 0 N 1026,0 0,5
12.12.2018 05:00:00 -2,0 -2,7 4 2 4 2 N 1025,9 2,4
12.12.2018 04:00:00 -1,6 -2,2 4 2 - - N 1026,0 1,7
12.12.2018 03:00:00 -1,4 -2,3 4 2 4 2 N 1026,0 0,3
12.12.2018 02:00:00 -0,6 -1,1 4 2 4 2 N 1025,7 0,5
12.12.2018 01:00:00 0,2 -0,5 2 1 - - - 1025,7 0,3
12.12.2018 00:00:00 1,2 0,5 4 2 4 2 N 1025,7 2,6
11.12.2018 23:00:00 2,4 1,6 4 2 7 4 N 1025,5 11
11.12.2018 22:00:00 3,5 2,3 4 2 - - N 1025,7 19
11.12.2018 21:00:00 3,9 2,6 4 2 7 4 N 1025,7 20
11.12.2018 20:00:00 3,7 2,9 4 2 7 4 N 1025,5 20
11.12.2018 19:00:00 4,3 2,9 4 2 - - N 1025,4 20
11.12.2018 18:00:00 - - - - - - - - -
11.12.2018 17:00:00 5,0 1,9 7 4 7 4 N 1024,7 20
11.12.2018 16:00:00 - - - - - - - - -
11.12.2018 15:00:00 6,5 1,7 4 2 14 8 N 1024,9 20
11.12.2018 14:00:00 7,3 2,0 7 4 18 10 W 1025,0 20
11.12.2018 13:00:00 7,1 1,9 7 4 - - WNW 1025,2 20
11.12.2018 12:00:00 6,6 2,4 7 4 14 8 W 1025,7 20
11.12.2018 11:00:00 5,0 2,0 8 4 - - W - 10
11.12.2018 10:00:00 3,9 1,4 4 2 - - - 1025,5 20
11.12.2018 09:00:00 3,4 1,0 11 6 14 8 WSW 1025,4 20
11.12.2018 08:00:00 3,2 1,2 4 2 11 6 WNW 1025,4 19
11.12.2018 07:00:00 3,2 1,1 7 4 - - WSW 1025,2 19
11.12.2018 06:00:00 3,0 1,2 11 6 18 10 WSW 1025,2 19
11.12.2018 05:00:00 3,2 1,5 11 6 14 8 WSW 1025,4 17
11.12.2018 04:00:00 3,0 1,7 11 6 - - WSW 1025,5 17
11.12.2018 03:00:00 2,7 1,7 7 4 11 6 WSW 1025,5 15
11.12.2018 02:00:00 2,7 1,5 7 4 14 8 WSW 1025,5 17
11.12.2018 01:00:00 1,9 0,9 11 6 - - WSW 1025,7 18
11.12.2018 00:00:00 2,2 1,1 11 6 14 8 WSW 1025,5 16
10.12.2018 23:00:00 2,2 1,2 11 6 14 8 WSW 1025,5 19
10.12.2018 22:00:00 2,2 1,3 11 6 - - WSW 1025,5 18
10.12.2018 21:00:00 3,2 1,9 11 6 18 10 WSW 1025,4 20
10.12.2018 20:00:00 3,1 2,2 11 6 18 10 WSW 1025,0 20
10.12.2018 19:00:00 3,6 2,5 11 6 - - W 1025,1 20
10.12.2018 18:00:00 4,4 3,2 11 6 22 12 W 1024,9 20
10.12.2018 17:00:00 5,4 3,9 11 6 25 14 W 1024,5 12
10.12.2018 16:00:00 5,5 4,1 14 8 - - W 1023,8 20
10.12.2018 15:00:00 6,0 3,9 11 6 25 14 W 1023,3 20
10.12.2018 14:00:00 4,1 3,1 13 7 29 16 NNW 1023,6 4,0
10.12.2018 13:00:00 7,3 3,9 14 8 - - W 1023,0 20

tt = Température de l'air
td = dewpoint
ff = Vitesse du vent
fx = gusts
dd = Direction du vent
ppp = reduced air pressure
vv = visibility

stations d'obs. à proximité